Theta_e
331 331 331 331 331 331 331 331 330 329 329 328 328 327 327 326 326 324 323 322 321 320 319 317 315 313 312 311 311 311 310 308 305 301 298 296 294 293 293 292 291 291
330 331 330 330 331 330 331 330 330 330 329 328 328 327 327 325 324 323 322 321 320 319 317 315 312 309 307 306 304 303 301 299 295 294 293 292 292 292 292 291 291 291
329 330 330 330 330 330 330 330 329 329 328 328 328 327 326 324 322 321 320 320 319 317 315 313 310 306 303 300 297 295 294 293 293 292 292 292 292 292 291 291 291 290
328 329 329 329 329 330 330 329 328 328 328 328 326 324 324 322 321 320 319 318 317 315 313 311 309 305 299 295 293 293 292 293 292 292 292 292 292 291 291 290 290 289
328 328 328 328 329 329 329 329 328 328 326 326 325 322 322 321 320 318 317 316 314 312 310 310 307 301 295 292 292 293 292 293 292 292 292 292 291 290 290 289 289 289
327 327 327 328 328 328 328 328 327 327 325 325 323 321 321 320 318 317 315 314 312 309 308 307 302 296 292 292 292 292 292 293 292 292 292 291 290 290 289 289 289 289
325 326 326 327 327 327 327 326 326 325 325 323 322 321 320 319 317 315 313 311 308 306 305 301 296 292 291 292 292 293 292 292 292 291 291 290 289 289 289 289 289 289
325 325 325 326 326 325 325 325 324 324 323 322 321 320 318 317 315 312 310 308 305 302 298 294 292 291 292 292 292 293 292 291 291 290 290 289 289 289 289 289 289 289
324 324 324 324 323 323 323 323 323 322 321 320 319 318 316 314 312 309 307 304 301 297 293 291 291 292 292 292 292 292 291 290 290 289 289 289 289 289 289 288 289 289
322 322 322 322 322 321 322 321 321 320 319 318 317 316 313 310 308 306 304 300 295 292 291 291 292 292 291 291 291 291 290 290 289 289 289 289 289 289 289 288 288 288
321 321 320 320 320 320 320 319 318 318 317 316 315 312 309 307 305 302 299 294 292 291 291 291 291 292 291 291 290 290 290 290 289 289 289 289 289 288 288 288 288 288
318 318 318 318 318 317 317 317 316 316 315 314 312 308 306 304 301 296 293 291 291 291 291 291 291 291 291 290 290 290 289 289 289 289 288 288 288 288 288 288 288 288
316 316 316 316 316 316 316 315 314 314 313 310 308 305 303 299 295 292 291 291 291 291 291 291 291 290 290 290 290 289 289 289 288 288 288 288 288 288 288 288 288 288
315 315 315 315 315 315 314 314 312 311 310 306 304 301 297 293 291 291 291 290 291 291 291 290 290 290 290 289 289 289 288 288 288 288 288 288 288 288 288 288 287 287
314 314 314 314 314 314 313 312 310 308 305 302 299 295 292 291 290 291 290 290 290 290 290 289 289 289 289 289 289 288 288 288 288 288 288 288 288 287 287 287 287 287
314 313 312 312 312 311 310 308 306 303 300 297 294 291 291 290 290 290 290 290 290 289 289 289 289 289 289 288 288 288 288 288 288 288 288 288 287 287 287 287 287 287
311 311 311 310 309 308 307 305 302 299 295 293 291 290 290 290 290 290 289 290 289 289 289 288 288 288 288 288 288 288 288 288 288 288 287 287 287 287 287 286 286 286
309 309 308 307 306 305 303 301 298 295 292 291 290 290 289 289 289 289 289 289 289 289 288 288 288 288 288 288 288 288 288 287 287 287 287 287 287 286 286 286 286 286
307 307 306 305 303 301 299 297 294 292 291 290 290 290 289 289 288 288 288 288 288 288 288 288 288 287 287 288 287 287 287 287 287 287 287 286 286 286 286 286 286 286
306 305 304 302 300 298 296 293 292 290 290 290 289 289 288 288 288 288 288 288 288 288 288 287 287 287 287 287 287 287 287 287 287 287 286 286 286 286 286 286 286 285
304 303 302 299 297 295 293 291 290 290 289 289 289 288 288 288 288 288 288 287 287 287 287 287 287 287 287 287 287 287 286 286 286 286 286 286 286 286 286 285 285 285
302 301 299 297 294 292 291 290 289 289 289 289 288 288 287 287 287 288 287 287 287 286 287 287 286 286 286 286 286 286 286 286 286 286 286 286 286 285 285 285 284 284
301 299 297 295 292 290 290 289 289 289 288 288 288 287 287 287 287 287 287 287 286 286 287 287 286 286 286 286 286 286 286 286 286 285 285 285 285 285 285 284 284 283
298 297 295 293 290 289 289 288 288 288 288 287 287 287 287 287 287 286 286 286 286 286 286 287 286 286 285 285 286 285 285 285 285 285 285 285 285 285 284 284 283 282
296 294 293 291 289 288 288 288 288 288 287 287 287 287 287 286 286 286 286 285 285 286 286 286 286 285 285 285 285 285 285 285 285 284 284 284 284 284 284 283 282 282
294 292 291 289 288 288 288 288 288 287 287 286 286 287 287 286 286 286 285 285 285 285 285 285 285 285 285 284 285 285 285 285 284 284 284 284 284 284 283 283 282 281
Wind_Speed
36 36 35 34 33 32 31 28 27 25 24 23 22 21 22 22 21 19 18 16 14 13 13 13 12 11 11 10 10 10 10 10 11 13 13 14 14 13 12 10 9 8
34 34 34 33 32 31 30 28 27 25 24 24 23 24 24 22 20 19 18 16 15 14 13 12 10 10 11 12 13 14 16 17 18 17 16 16 14 12 11 9 8 6
33 33 33 33 31 30 29 27 26 26 25 25 26 26 24 22 20 19 17 16 16 15 14 12 12 14 16 17 18 19 19 19 19 17 15 15 13 11 9 8 6 4
32 32 32 32 31 29 29 28 27 26 27 27 27 26 24 22 20 19 18 17 16 15 15 14 15 17 18 19 20 20 19 18 18 15 13 12 11 9 8 6 5 3
31 31 31 30 30 30 29 29 29 28 28 28 27 26 23 21 20 19 19 18 16 16 16 17 18 19 20 21 20 19 18 17 16 13 11 10 9 7 7 6 4 4
29 30 30 30 30 30 30 30 30 30 30 29 28 25 22 20 20 20 20 19 17 18 19 21 22 22 23 22 20 18 17 15 14 12 9 8 8 7 6 5 5 5
27 28 29 29 29 30 31 30 31 31 31 30 27 24 22 22 22 21 20 19 20 21 23 24 25 24 23 21 19 17 15 13 12 11 9 8 7 6 6 6 6 6
26 27 28 29 30 30 31 31 32 31 30 29 26 24 23 23 22 21 21 22 24 25 26 26 26 25 22 19 17 16 15 13 11 10 9 8 7 7 7 6 6 6
25 27 28 29 30 31 31 31 31 30 29 27 25 24 23 22 22 23 24 26 27 28 28 27 26 24 21 18 16 15 14 13 11 10 9 8 7 7 6 6 5 6
25 27 28 29 30 31 31 31 30 28 27 25 24 25 24 23 24 26 28 29 30 30 28 27 25 23 21 18 15 14 13 12 11 9 8 7 6 6 6 6 5 6
26 27 28 29 30 30 29 29 28 26 25 24 25 25 25 26 28 29 31 31 31 30 28 26 23 21 19 17 15 14 12 11 10 8 7 7 6 6 6 5 6 7
26 27 28 29 29 28 27 26 25 24 25 25 25 27 28 30 31 32 32 31 30 28 26 24 22 20 18 17 15 13 11 10 9 8 7 6 6 5 5 5 6 7
26 27 27 27 26 25 23 22 23 24 25 26 27 30 33 34 34 33 32 30 29 27 25 23 21 19 17 16 14 12 11 10 9 8 7 6 5 5 5 5 6 7
25 24 24 24 23 22 21 22 24 26 27 29 31 34 35 35 35 33 31 29 27 25 23 21 20 18 17 15 14 12 11 10 9 8 6 6 6 5 5 6 6 7
22 21 22 22 21 22 23 25 27 28 30 32 34 35 35 34 33 32 30 29 26 24 22 21 19 18 16 14 13 12 10 10 8 7 6 5 6 6 6 6 6 6
23 22 22 22 23 25 27 29 30 31 33 35 35 35 34 33 31 30 29 28 26 24 22 21 19 17 16 14 12 11 9 9 8 6 6 5 5 6 6 6 6 6
24 24 23 24 25 27 29 31 33 34 35 35 35 34 33 32 31 30 28 26 25 24 22 21 19 17 16 14 12 10 9 7 7 5 5 5 5 6 6 6 6 6
24 24 25 26 28 30 31 34 35 36 36 35 35 34 33 32 31 29 28 26 25 24 22 21 19 17 15 13 11 10 8 6 6 5 5 5 6 5 5 5 5 6
26 27 28 29 30 32 34 36 37 37 37 36 35 34 33 32 31 29 28 26 25 24 22 20 18 16 14 13 11 10 8 6 5 4 5 5 5 5 5 5 6 6
29 30 30 31 33 35 36 38 38 38 37 36 36 35 34 32 31 29 28 26 24 23 22 20 18 16 14 12 11 9 7 6 5 4 5 5 5 5 5 6 7 7
31 32 33 34 35 37 38 39 39 39 38 37 36 35 34 33 31 30 28 26 24 23 21 20 17 15 13 12 10 9 7 6 5 4 4 5 5 5 5 6 7 7
34 34 35 37 38 39 40 40 40 39 38 37 35 34 33 32 31 29 28 26 24 22 21 19 17 15 13 11 10 8 7 5 5 4 4 5 5 6 6 7 7 7
36 37 38 39 40 41 41 40 40 39 38 37 36 34 33 32 30 28 27 26 24 22 20 18 17 14 12 11 9 7 6 5 4 4 5 5 6 7 7 7 7 7
36 38 39 40 41 41 41 40 39 39 38 36 36 35 33 32 30 28 27 24 23 21 18 17 16 14 12 10 9 7 5 4 3 3 4 5 6 7 7 6 6 7
35 36 37 39 40 39 39 39 38 38 37 35 34 34 33 31 29 28 27 24 21 20 17 16 15 14 12 10 8 6 5 3 3 3 4 5 6 6 6 6 6 6
34 35 36 37 38 38 38 38 38 37 36 35 33 33 32 30 28 27 26 24 21 19 17 16 15 13 12 9 7 6 4 3 3 2 3 4 5 6 5 5 5 6
Wind_Direction
228 227 228 228 228 229 229 228 227 225 224 221 219 219 215 209 209 210 210 210 215 226 237 236 229 223 220 211 202 196 182 162 141 127 123 117 112 110 109 107 102 99
228 228 228 228 227 226 227 227 227 225 222 219 217 215 210 208 209 208 208 213 219 222 221 214 199 181 169 157 148 143 137 133 127 123 124 121 119 119 117 112 105 97
227 227 226 225 225 224 223 223 223 221 218 214 211 208 206 207 208 206 208 212 212 207 202 193 172 155 149 143 139 134 132 131 127 127 130 127 126 127 122 118 114 106
226 226 225 224 224 223 222 219 215 214 212 208 204 202 202 204 203 203 204 203 202 197 189 177 163 154 148 143 142 139 136 135 131 133 136 130 129 129 123 121 120 108
225 224 223 222 221 219 218 215 212 209 206 203 201 199 200 201 201 202 199 195 194 190 180 170 162 156 151 147 147 144 141 138 135 137 139 133 131 128 121 121 117 101
222 220 219 218 217 215 214 212 209 205 200 199 198 197 199 202 202 200 196 192 188 181 172 165 161 156 152 151 150 146 143 141 139 141 143 138 133 126 118 112 102 86
218 216 215 214 214 212 210 207 203 199 197 196 195 196 200 201 199 197 194 188 179 171 165 160 159 156 154 155 153 149 147 146 146 148 147 139 132 124 113 100 84 73
215 213 211 210 208 206 203 200 197 195 194 193 193 196 198 198 195 191 186 178 170 164 161 159 158 157 156 157 156 153 151 150 151 150 146 138 131 120 105 91 77 65
210 208 206 204 201 198 196 194 193 191 191 192 193 194 193 193 191 184 176 170 165 162 161 161 160 158 158 159 158 156 155 152 151 149 145 137 128 115 99 87 73 54
204 201 198 197 194 192 191 190 189 188 188 191 193 191 188 186 183 176 170 167 164 163 163 163 162 160 159 160 159 159 157 154 151 148 143 132 120 105 91 76 57 40
197 195 192 191 189 188 187 186 186 186 188 191 191 188 182 177 174 170 168 167 166 166 165 164 163 162 161 161 160 160 160 157 152 146 137 125 111 96 80 59 41 31
191 189 187 186 184 183 182 183 186 188 190 190 188 183 175 171 169 167 168 168 167 167 166 164 163 163 164 164 162 162 161 157 150 144 137 124 109 92 74 50 35 28
187 184 183 183 182 183 185 189 192 193 190 187 184 178 171 168 167 167 168 169 168 167 166 165 164 165 166 165 164 164 161 157 153 146 139 126 110 90 71 50 32 30
186 185 185 187 188 191 196 197 194 191 188 182 177 173 170 168 168 167 168 168 167 167 166 166 167 166 167 167 166 164 161 158 155 148 141 128 112 91 71 57 39 32
192 193 192 193 197 198 198 195 190 186 181 176 172 171 169 168 169 169 169 168 166 167 166 167 169 168 167 168 166 164 164 160 156 149 140 123 104 89 73 64 50 32
202 201 199 199 199 197 192 189 185 180 175 172 170 170 169 168 169 171 171 170 167 167 167 167 169 168 167 167 166 166 168 164 160 150 133 113 93 84 73 61 51 34
199 198 199 199 196 192 188 184 180 175 172 171 170 170 170 170 172 172 171 171 170 169 170 169 169 169 167 167 167 168 172 171 163 148 126 109 90 77 71 58 44 31
198 197 196 195 192 188 185 180 176 173 172 171 171 171 172 172 174 174 172 172 172 171 171 169 168 169 168 167 168 168 172 175 162 139 116 98 81 67 61 55 40 27
201 197 194 192 189 185 181 177 175 174 173 173 173 173 174 174 175 174 172 172 173 172 171 169 168 169 169 168 170 171 171 167 153 129 106 85 74 63 49 41 34 26
199 195 192 190 186 183 179 177 176 176 175 175 175 174 175 175 174 174 173 173 174 173 171 168 167 170 172 171 170 172 169 160 146 123 101 82 71 64 47 33 28 23
197 194 191 189 185 182 180 178 178 177 176 177 177 177 177 177 175 175 174 173 174 174 172 168 168 171 174 174 173 171 168 157 142 120 99 87 80 69 50 38 31 22
198 194 191 188 184 182 181 180 179 178 177 177 177 177 177 177 176 176 175 174 173 175 174 169 169 173 176 177 176 171 166 155 139 120 104 95 86 72 54 43 34 24
198 194 191 187 185 183 182 181 180 179 179 179 178 177 176 176 176 176 176 177 175 175 177 173 170 173 179 181 178 172 165 155 140 122 110 97 84 72 56 45 36 28
199 195 192 188 186 185 183 181 181 180 180 180 180 178 176 176 177 175 175 177 177 177 179 177 173 173 180 183 179 173 167 155 142 124 111 97 82 72 59 49 41 32
199 195 193 189 187 186 184 183 182 181 181 181 181 180 178 176 177 176 174 175 177 177 177 178 177 174 178 186 182 174 173 163 149 132 113 96 80 74 64 55 50 38
199 196 195 192 189 188 186 185 184 183 182 181 180 180 178 176 176 176 175 174 175 177 177 178 181 177 177 186 191 183 182 173 163 148 114 88 74 75 72 62 57 44